GFSMW_500_temp_114.txt.gz
Temp
-11 -12 -11 -12 -12 -11 -11 -11 -12 -11 -11 -12 -12 -12 -12 -13 -12 -12 -12 -12 -13 -13 -13 -13 -13 -13 -13 -13 -13 -13 -13 -13 -13 -13 -13 -13 -13 -13 -13 -13 -13 -13 -13
-12 -12 -12 -11 -11 -11 -11 -12 -12 -12 -11 -11 -12 -12 -12 -12 -12 -12 -12 -13 -13 -13 -13 -13 -13 -13 -13 -13 -13 -13 -13 -13 -13 -13 -13 -13 -13 -13 -13 -13 -13 -13 -13
-12 -13 -13 -12 -11 -11 -12 -12 -12 -11 -12 -11 -11 -11 -12 -12 -12 -13 -12 -12 -13 -13 -13 -14 -13 -13 -13 -13 -13 -13 -13 -13 -13 -13 -13 -13 -12 -13 -13 -12 -13 -13 -13
-12 -14 -14 -12 -11 -11 -12 -11 -11 -11 -11 -11 -11 -11 -12 -12 -12 -12 -12 -12 -12 -13 -13 -14 -14 -13 -13 -13 -13 -13 -13 -13 -13 -13 -13 -13 -13 -12 -13 -13 -13 -13 -13
-14 -14 -14 -12 -11 -11 -12 -11 -12 -12 -12 -12 -11 -11 -12 -12 -12 -12 -12 -12 -12 -13 -13 -14 -14 -13 -13 -13 -13 -13 -13 -13 -13 -13 -13 -13 -13 -13 -13 -13 -13 -13 -13
-14 -14 -14 -14 -12 -12 -11 -11 -12 -12 -12 -12 -11 -11 -12 -12 -11 -12 -12 -12 -12 -13 -13 -14 -14 -13 -13 -13 -13 -13 -13 -13 -12 -13 -13 -13 -13 -13 -13 -13 -13 -13 -13
-14 -14 -14 -15 -13 -12 -11 -11 -11 -12 -12 -12 -12 -12 -11 -12 -11 -11 -12 -12 -12 -13 -13 -14 -14 -13 -13 -13 -13 -13 -13 -12 -12 -13 -14 -13 -13 -13 -13 -13 -13 -13 -13
-14 -16 -14 -13 -12 -12 -12 -12 -12 -12 -12 -12 -12 -12 -11 -12 -11 -11 -11 -12 -12 -13 -13 -14 -14 -13 -13 -13 -13 -13 -13 -13 -13 -13 -14 -13 -13 -13 -14 -13 -13 -13 -13
-17 -16 -14 -13 -14 -14 -13 -12 -12 -12 -12 -12 -12 -12 -12 -12 -12 -11 -11 -12 -12 -12 -13 -14 -14 -14 -14 -14 -13 -13 -13 -13 -13 -13 -14 -13 -13 -13 -13 -13 -13 -13 -13
-16 -16 -15 -14 -15 -15 -14 -13 -13 -13 -12 -12 -12 -12 -12 -12 -12 -11 -11 -12 -12 -12 -13 -14 -14 -14 -14 -14 -13 -13 -13 -13 -14 -14 -13 -14 -13 -13 -13 -13 -13 -13 -13
-16 -16 -16 -16 -15 -15 -14 -14 -13 -13 -12 -12 -12 -12 -12 -12 -12 -11 -12 -12 -12 -12 -13 -14 -14 -14 -14 -14 -13 -13 -14 -14 -14 -14 -14 -14 -14 -14 -14 -14 -14 -14 -14
-17 -18 -17 -16 -16 -15 -14 -14 -13 -13 -13 -13 -12 -12 -12 -12 -12 -12 -12 -12 -12 -12 -14 -14 -14 -14 -14 -14 -13 -14 -14 -14 -14 -14 -14 -14 -14 -14 -14 -14 -14 -14 -14
-18 -18 -17 -16 -15 -15 -14 -14 -13 -13 -13 -12 -12 -12 -12 -12 -12 -12 -12 -12 -12 -13 -13 -14 -14 -14 -14 -14 -14 -14 -14 -14 -14 -14 -14 -14 -14 -14 -14 -14 -14 -14 -14
-18 -18 -17 -16 -15 -15 -14 -13 -13 -13 -13 -13 -13 -13 -13 -12 -12 -12 -12 -12 -12 -13 -14 -14 -14 -14 -14 -14 -14 -14 -14 -14 -14 -14 -14 -14 -14 -14 -14 -14 -14 -14 -14
-18 -17 -17 -16 -16 -15 -14 -13 -13 -13 -13 -13 -13 -13 -13 -12 -12 -12 -13 -12 -13 -14 -14 -15 -14 -14 -14 -14 -14 -14 -14 -14 -14 -15 -14 -14 -14 -14 -14 -14 -14 -14 -14
-18 -18 -17 -16 -15 -15 -14 -14 -13 -13 -13 -13 -13 -13 -12 -13 -12 -12 -13 -13 -15 -14 -14 -15 -14 -14 -14 -14 -14 -14 -14 -14 -14 -14 -14 -14 -14 -14 -14 -14 -15 -15 -15
-18 -18 -17 -17 -16 -15 -14 -14 -14 -13 -13 -13 -13 -13 -13 -13 -14 -15 -15 -15 -16 -15 -15 -15 -15 -15 -14 -14 -15 -15 -15 -14 -14 -14 -14 -14 -14 -14 -14 -14 -14 -15 -15
-18 -18 -18 -17 -17 -16 -15 -15 -14 -14 -14 -13 -14 -14 -15 -15 -15 -16 -16 -16 -16 -16 -15 -15 -15 -15 -14 -14 -15 -15 -15 -15 -15 -15 -14 -14 -14 -14 -15 -15 -15 -15 -15
-19 -19 -18 -18 -18 -17 -16 -16 -15 -15 -15 -14 -14 -15 -16 -16 -16 -16 -16 -16 -16 -16 -15 -15 -15 -15 -15 -14 -15 -15 -15 -15 -15 -15 -15 -15 -15 -14 -14 -15 -15 -15 -15
-19 -19 -19 -18 -18 -18 -17 -17 -16 -15 -15 -14 -14 -15 -15 -16 -16 -16 -16 -16 -15 -16 -15 -16 -15 -15 -15 -14 -15 -15 -15 -15 -15 -15 -15 -15 -15 -15 -15 -15 -15 -15 -15
-19 -19 -19 -19 -18 -18 -18 -17 -17 -16 -15 -15 -15 -15 -16 -16 -16 -16 -16 -16 -16 -15 -17 -16 -16 -16 -15 -15 -15 -15 -15 -15 -16 -15 -15 -15 -15 -15 -15 -15 -15 -15 -15
-20 -20 -19 -19 -18 -18 -18 -18 -17 -16 -15 -14 -14 -15 -15 -15 -15 -15 -15 -15 -15 -16 -16 -16 -16 -16 -16 -15 -16 -15 -15 -15 -16 -16 -16 -16 -16 -16 -16 -16 -16 -16 -16
-20 -20 -20 -19 -19 -19 -18 -18 -18 -17 -16 -15 -15 -15 -15 -14 -15 -15 -15 -15 -15 -15 -15 -15 -15 -15 -16 -16 -16 -16 -16 -16 -16 -16 -16 -16 -16 -16 -16 -16 -16 -16 -16
-21 -20 -20 -20 -20 -19 -19 -19 -18 -18 -17 -16 -16 -15 -15 -15 -15 -14 -14 -15 -15 -15 -15 -15 -15 -15 -16 -16 -16 -16 -16 -16 -16 -16 -16 -16 -16 -16 -16 -16 -16 -17 -17
-21 -21 -21 -20 -20 -20 -20 -20 -19 -18 -18 -17 -16 -16 -16 -15 -15 -15 -15 -15 -15 -15 -16 -16 -16 -16 -17 -17 -17 -17 -17 -17 -16 -16 -16 -16 -16 -16 -17 -17 -17 -17 -17
-21 -21 -21 -20 -20 -20 -20 -20 -20 -19 -18 -17 -17 -17 -16 -16 -16 -16 -16 -16 -16 -16 -16 -16 -16 -17 -17 -17 -17 -17 -17 -17 -17 -17 -17 -17 -17 -17 -17 -18 -18 -18 -18

GFSMW_500_temp_117.txt.gz
Temp
-12 -12 -12 -13 -12 -12 -12 -11 -11 -11 -11 -12 -12 -12 -12 -12 -11 -11 -13 -12 -12 -12 -13 -12 -13 -13 -13 -13 -13 -13 -13 -13 -13 -13 -13 -13 -13 -13 -13 -14 -13 -13 -13
-12 -12 -12 -12 -13 -12 -12 -11 -11 -11 -11 -11 -12 -11 -12 -12 -12 -12 -12 -12 -13 -13 -13 -12 -13 -13 -14 -13 -13 -13 -13 -13 -13 -13 -13 -13 -13 -13 -13 -13 -13 -13 -13
-13 -13 -13 -13 -13 -12 -12 -12 -11 -11 -11 -11 -11 -11 -12 -12 -12 -12 -12 -12 -12 -13 -13 -13 -13 -13 -14 -14 -13 -13 -13 -13 -13 -13 -13 -13 -14 -14 -13 -12 -13 -13 -13
-14 -15 -14 -13 -12 -13 -13 -13 -12 -12 -11 -11 -11 -11 -11 -12 -12 -12 -12 -11 -12 -12 -13 -13 -13 -13 -14 -14 -13 -14 -14 -13 -13 -13 -13 -13 -13 -14 -13 -13 -13 -13 -13
-14 -15 -15 -13 -12 -12 -12 -11 -11 -12 -12 -12 -11 -11 -11 -11 -12 -11 -11 -12 -11 -12 -12 -13 -14 -14 -14 -14 -13 -14 -14 -14 -13 -13 -13 -13 -14 -14 -13 -13 -13 -13 -13
-15 -15 -15 -14 -12 -11 -11 -11 -11 -12 -12 -12 -11 -11 -11 -11 -12 -11 -11 -11 -11 -12 -12 -13 -14 -14 -14 -14 -14 -13 -13 -14 -13 -13 -13 -13 -14 -14 -13 -13 -13 -13 -13
-15 -15 -15 -13 -11 -11 -11 -11 -12 -13 -14 -12 -12 -12 -11 -12 -12 -12 -12 -12 -12 -12 -12 -12 -14 -14 -14 -14 -14 -13 -13 -14 -13 -13 -12 -13 -13 -14 -13 -13 -13 -13 -13
-16 -16 -15 -14 -13 -13 -12 -11 -13 -14 -15 -13 -13 -12 -11 -12 -12 -12 -11 -11 -12 -12 -12 -12 -13 -14 -14 -14 -14 -14 -14 -14 -13 -13 -12 -13 -14 -13 -13 -14 -13 -13 -14
-18 -17 -16 -15 -15 -14 -13 -14 -13 -14 -14 -14 -13 -12 -12 -12 -12 -12 -11 -11 -12 -12 -12 -12 -13 -13 -14 -14 -14 -14 -14 -14 -14 -13 -14 -13 -13 -13 -14 -14 -13 -14 -14
-16 -15 -14 -14 -15 -16 -16 -15 -14 -15 -14 -14 -13 -12 -12 -12 -12 -12 -12 -11 -12 -12 -12 -11 -12 -13 -14 -14 -14 -14 -14 -14 -14 -14 -14 -14 -14 -14 -13 -14 -13 -14 -14
-16 -17 -17 -17 -18 -18 -17 -16 -16 -15 -15 -14 -14 -13 -12 -12 -12 -12 -12 -11 -12 -12 -12 -12 -12 -13 -14 -14 -14 -14 -14 -14 -14 -14 -14 -14 -14 -14 -13 -14 -14 -14 -13
-17 -18 -17 -17 -17 -17 -17 -17 -16 -15 -15 -15 -15 -13 -13 -13 -12 -12 -12 -12 -12 -12 -12 -12 -12 -13 -14 -14 -14 -14 -14 -14 -14 -14 -14 -14 -14 -14 -14 -14 -14 -14 -14
-18 -18 -18 -18 -18 -18 -18 -17 -16 -16 -15 -14 -13 -13 -13 -13 -12 -12 -12 -12 -12 -12 -13 -12 -12 -13 -14 -14 -14 -14 -15 -14 -14 -14 -14 -14 -14 -14 -15 -14 -14 -14 -14
-18 -17 -18 -18 -18 -18 -17 -17 -16 -16 -15 -14 -14 -13 -13 -13 -12 -12 -12 -12 -12 -12 -13 -13 -13 -13 -14 -14 -14 -14 -15 -14 -14 -14 -14 -14 -14 -14 -15 -15 -15 -15 -14
-19 -18 -19 -19 -18 -18 -17 -16 -16 -15 -15 -14 -14 -13 -13 -13 -13 -13 -13 -12 -13 -13 -13 -13 -14 -14 -14 -14 -14 -14 -15 -14 -14 -14 -14 -15 -15 -14 -14 -14 -15 -15 -14
-19 -19 -18 -18 -17 -17 -17 -16 -15 -15 -15 -14 -14 -13 -13 -13 -13 -13 -13 -13 -13 -13 -13 -14 -14 -14 -14 -14 -14 -14 -15 -14 -14 -14 -14 -14 -15 -14 -14 -14 -14 -14 -14
-18 -18 -18 -18 -17 -17 -16 -16 -15 -14 -14 -14 -13 -13 -13 -13 -13 -13 -13 -13 -13 -13 -13 -15 -15 -15 -15 -15 -15 -14 -15 -15 -15 -14 -14 -14 -14 -14 -14 -14 -14 -14 -15
-18 -18 -18 -18 -17 -17 -16 -16 -15 -14 -14 -13 -13 -12 -12 -13 -13 -13 -13 -13 -13 -14 -15 -16 -15 -15 -15 -15 -15 -15 -15 -15 -15 -15 -15 -15 -15 -15 -15 -15 -15 -15 -15
-19 -18 -18 -18 -18 -17 -17 -16 -15 -14 -14 -14 -13 -13 -13 -14 -14 -14 -15 -15 -15 -15 -16 -16 -16 -16 -16 -15 -15 -15 -15 -15 -15 -15 -15 -15 -15 -15 -15 -15 -15 -15 -15
-19 -19 -19 -19 -19 -18 -18 -17 -16 -16 -15 -14 -14 -14 -14 -15 -15 -16 -16 -16 -16 -16 -16 -16 -17 -16 -16 -15 -15 -15 -15 -15 -15 -15 -15 -15 -15 -15 -15 -15 -16 -15 -15
-20 -20 -19 -19 -19 -19 -18 -18 -17 -17 -16 -15 -15 -15 -15 -15 -16 -16 -17 -16 -17 -17 -17 -16 -16 -16 -16 -15 -16 -16 -15 -15 -15 -15 -15 -15 -15 -15 -15 -15 -15 -16 -16
-20 -20 -20 -20 -20 -19 -19 -18 -18 -17 -17 -16 -16 -15 -15 -16 -16 -16 -16 -16 -17 -17 -16 -15 -16 -16 -16 -15 -16 -16 -15 -15 -15 -15 -15 -15 -15 -15 -15 -15 -15 -16 -16
-21 -21 -20 -20 -20 -20 -20 -19 -18 -18 -18 -17 -16 -16 -15 -15 -15 -16 -16 -16 -16 -16 -16 -16 -17 -16 -15 -17 -17 -16 -15 -15 -15 -15 -15 -16 -16 -16 -16 -16 -16 -16 -16
-21 -21 -21 -21 -21 -20 -20 -20 -20 -19 -18 -19 -18 -17 -16 -15 -15 -16 -16 -15 -16 -16 -15 -15 -16 -16 -16 -16 -16 -17 -16 -16 -17 -17 -16 -16 -16 -16 -17 -16 -16 -17 -17
-22 -21 -22 -21 -21 -21 -20 -20 -20 -20 -19 -19 -19 -18 -17 -16 -16 -16 -16 -15 -16 -16 -15 -15 -15 -16 -16 -16 -16 -16 -16 -17 -17 -16 -16 -17 -17 -17 -17 -17 -17 -17 -17
-22 -22 -22 -22 -21 -21 -21 -20 -20 -20 -20 -20 -19 -18 -18 -17 -17 -16 -16 -16 -17 -16 -17 -17 -15 -16 -16 -16 -16 -16 -17 -16 -17 -17 -17 -17 -17 -17 -17 -17 -17 -18 -18

GFSMW_500_temp_120.txt.gz
Temp
-14 -14 -13 -13 -13 -12 -12 -11 -12 -12 -11 -11 -12 -12 -12 -12 -12 -12 -12 -13 -12 -12 -12 -12 -13 -13 -13 -13 -13 -13 -13 -13 -13 -13 -13 -13 -14 -13 -13 -13 -14 -14 -13
-14 -14 -14 -14 -13 -13 -13 -12 -12 -12 -12 -12 -12 -12 -12 -12 -12 -12 -12 -13 -13 -12 -12 -12 -13 -13 -13 -13 -13 -13 -13 -13 -13 -13 -13 -14 -14 -13 -13 -13 -14 -13 -13
-14 -14 -14 -14 -14 -13 -14 -13 -13 -13 -12 -12 -12 -12 -12 -12 -12 -12 -12 -13 -12 -12 -12 -12 -12 -13 -13 -13 -13 -14 -13 -13 -13 -13 -13 -14 -14 -14 -13 -14 -14 -14 -13
-14 -14 -14 -14 -14 -14 -13 -13 -13 -13 -13 -12 -12 -12 -12 -12 -12 -12 -11 -12 -12 -12 -12 -12 -12 -12 -13 -14 -14 -14 -14 -14 -14 -13 -13 -14 -14 -14 -14 -13 -14 -13 -14
-15 -15 -15 -14 -13 -13 -12 -12 -12 -12 -12 -12 -12 -12 -12 -12 -12 -13 -12 -12 -12 -12 -12 -12 -12 -12 -13 -14 -14 -14 -14 -14 -14 -13 -13 -14 -13 -13 -13 -13 -14 -14 -14
-15 -15 -14 -14 -13 -13 -12 -12 -12 -12 -12 -12 -12 -13 -12 -12 -12 -12 -12 -12 -12 -11 -12 -12 -12 -13 -13 -14 -14 -14 -14 -14 -14 -14 -14 -14 -13 -13 -13 -13 -14 -14 -14
-16 -16 -14 -14 -14 -14 -14 -14 -14 -14 -13 -13 -13 -13 -13 -12 -12 -12 -12 -12 -12 -12 -12 -12 -12 -13 -13 -14 -14 -14 -14 -14 -14 -14 -14 -14 -13 -13 -13 -14 -14 -13 -13
-15 -15 -15 -14 -15 -14 -14 -14 -15 -15 -15 -14 -14 -14 -13 -13 -12 -13 -12 -12 -12 -12 -12 -12 -12 -13 -13 -14 -14 -14 -14 -14 -14 -14 -14 -13 -13 -13 -13 -14 -14 -14 -14
-15 -15 -15 -15 -15 -15 -15 -15 -15 -15 -15 -15 -15 -14 -14 -13 -13 -13 -13 -12 -12 -12 -12 -12 -12 -12 -13 -13 -14 -14 -14 -14 -14 -14 -14 -14 -13 -14 -14 -14 -14 -14 -14
-15 -15 -15 -15 -15 -15 -15 -15 -15 -15 -15 -15 -15 -14 -14 -14 -13 -13 -13 -12 -12 -12 -12 -12 -12 -12 -13 -13 -14 -14 -14 -14 -14 -14 -14 -14 -14 -14 -14 -14 -14 -14 -14
-15 -15 -16 -16 -16 -17 -17 -16 -16 -16 -16 -16 -15 -14 -15 -14 -13 -14 -13 -12 -12 -12 -12 -12 -12 -12 -12 -13 -14 -14 -14 -14 -14 -14 -14 -14 -14 -14 -14 -14 -14 -14 -14
-17 -17 -17 -17 -17 -17 -17 -18 -17 -16 -16 -16 -16 -15 -15 -15 -15 -14 -13 -13 -12 -12 -12 -12 -12 -12 -12 -12 -13 -14 -14 -14 -14 -14 -14 -14 -14 -14 -14 -15 -15 -14 -14
-17 -17 -17 -17 -17 -18 -17 -17 -17 -17 -16 -17 -16 -16 -16 -15 -15 -14 -14 -13 -12 -12 -12 -12 -12 -12 -12 -12 -13 -14 -14 -14 -14 -14 -14 -14 -14 -14 -14 -14 -15 -15 -15
-18 -17 -17 -17 -17 -17 -17 -16 -17 -17 -17 -16 -17 -16 -15 -15 -15 -15 -13 -13 -12 -12 -13 -13 -13 -13 -13 -13 -13 -14 -15 -15 -14 -14 -14 -14 -14 -14 -14 -14 -15 -14 -15
-18 -17 -17 -17 -17 -17 -17 -18 -18 -17 -17 -17 -16 -16 -15 -14 -14 -13 -13 -13 -13 -12 -13 -13 -13 -13 -13 -13 -14 -15 -15 -15 -14 -14 -14 -14 -14 -15 -15 -14 -14 -15 -15
-18 -18 -18 -18 -18 -18 -18 -18 -18 -17 -17 -16 -16 -16 -15 -14 -14 -13 -13 -13 -12 -12 -12 -13 -13 -13 -13 -13 -14 -15 -15 -15 -15 -14 -14 -14 -14 -14 -15 -15 -14 -14 -14
-19 -19 -18 -18 -18 -18 -18 -17 -17 -17 -17 -17 -16 -15 -15 -15 -14 -14 -13 -13 -13 -13 -13 -13 -13 -13 -13 -13 -14 -15 -16 -15 -15 -14 -15 -14 -14 -14 -14 -15 -15 -14 -14
-20 -19 -18 -18 -18 -18 -17 -17 -17 -16 -16 -15 -15 -15 -14 -14 -14 -14 -13 -13 -13 -13 -13 -13 -13 -13 -13 -14 -15 -15 -16 -16 -15 -15 -15 -15 -15 -15 -14 -14 -16 -15 -15
-20 -19 -19 -18 -18 -17 -17 -17 -16 -16 -15 -15 -14 -14 -14 -13 -13 -13 -13 -13 -13 -13 -13 -13 -13 -14 -14 -15 -15 -16 -16 -16 -15 -15 -15 -15 -15 -15 -15 -15 -15 -15 -15
-19 -19 -19 -18 -18 -18 -17 -17 -16 -16 -15 -15 -15 -14 -13 -13 -13 -13 -12 -13 -13 -13 -14 -15 -14 -15 -15 -16 -16 -16 -16 -15 -15 -15 -15 -15 -15 -15 -15 -15 -15 -15 -15
-20 -19 -19 -19 -19 -18 -18 -18 -17 -17 -16 -15 -15 -14 -14 -14 -13 -14 -14 -15 -14 -15 -15 -15 -15 -16 -16 -16 -16 -17 -16 -15 -15 -15 -15 -15 -16 -15 -15 -15 -15 -15 -15
-20 -20 -20 -19 -19 -20 -19 -19 -19 -18 -17 -17 -16 -16 -15 -15 -15 -15 -15 -15 -15 -15 -16 -16 -16 -17 -16 -16 -17 -17 -17 -16 -16 -15 -15 -16 -16 -16 -16 -16 -16 -16 -16
-20 -20 -20 -20 -20 -20 -20 -20 -19 -19 -18 -17 -17 -17 -16 -15 -16 -16 -16 -15 -16 -16 -16 -16 -17 -16 -17 -17 -16 -16 -17 -16 -16 -16 -16 -16 -16 -16 -16 -16 -16 -16 -16
-21 -21 -21 -21 -21 -21 -20 -20 -20 -20 -19 -19 -19 -17 -17 -16 -16 -16 -16 -16 -16 -16 -16 -16 -16 -16 -17 -16 -15 -16 -17 -16 -17 -18 -17 -16 -17 -17 -17 -16 -16 -16 -16
-22 -22 -22 -21 -21 -21 -21 -20 -20 -20 -20 -20 -19 -19 -18 -18 -16 -16 -16 -16 -16 -16 -16 -16 -16 -16 -16 -16 -16 -16 -16 -16 -16 -17 -18 -17 -17 -17 -17 -17 -17 -17 -17
-22 -22 -22 -22 -22 -22 -21 -21 -21 -20 -20 -20 -20 -19 -19 -19 -18 -17 -16 -16 -16 -16 -16 -16 -16 -16 -16 -16 -16 -16 -17 -17 -17 -17 -16 -17 -18 -18 -17 -17 -17 -17 -18

GFSMW_500_temp_126.txt.gz
Temp
-12 -13 -13 -13 -13 -13 -13 -13 -13 -13 -14 -13 -14 -14 -14 -14 -14 -14 -13 -14 -13 -13 -13 -13 -13 -13 -14 -14 -13 -13 -13 -13 -13 -13 -13 -13 -13 -13 -13 -13 -14 -14 -13
-13 -13 -14 -13 -13 -13 -13 -14 -13 -13 -14 -14 -14 -14 -14 -14 -14 -14 -14 -14 -13 -13 -14 -14 -13 -13 -13 -13 -13 -13 -13 -13 -14 -13 -13 -14 -14 -13 -14 -14 -14 -14 -13
-13 -13 -15 -14 -14 -14 -13 -14 -14 -14 -14 -14 -14 -14 -14 -13 -13 -14 -13 -14 -14 -14 -14 -13 -13 -13 -13 -13 -14 -14 -14 -14 -13 -13 -13 -14 -14 -14 -14 -14 -14 -13 -14
-14 -14 -15 -15 -15 -15 -14 -14 -15 -14 -14 -13 -14 -14 -13 -13 -13 -14 -14 -14 -15 -15 -14 -14 -13 -13 -14 -13 -14 -14 -14 -14 -14 -13 -13 -13 -14 -14 -14 -14 -14 -13 -13
-16 -16 -16 -15 -15 -15 -15 -14 -14 -14 -14 -13 -13 -14 -14 -14 -14 -13 -13 -13 -13 -13 -14 -13 -14 -13 -13 -13 -13 -13 -13 -14 -14 -14 -14 -14 -14 -14 -14 -13 -14 -14 -14
-18 -17 -16 -16 -15 -14 -14 -14 -14 -15 -14 -13 -13 -13 -14 -14 -13 -13 -13 -13 -13 -12 -13 -14 -14 -14 -13 -13 -13 -13 -13 -13 -13 -14 -14 -14 -14 -14 -14 -13 -14 -14 -14
-18 -17 -16 -17 -15 -15 -14 -14 -15 -14 -15 -14 -14 -14 -14 -14 -14 -13 -13 -13 -13 -13 -13 -14 -14 -14 -13 -13 -13 -13 -13 -13 -13 -14 -14 -14 -14 -14 -14 -14 -13 -14 -14
-18 -17 -17 -16 -16 -15 -14 -15 -15 -15 -15 -14 -14 -14 -14 -14 -14 -14 -14 -13 -13 -13 -13 -13 -13 -14 -13 -13 -13 -13 -13 -13 -13 -13 -14 -15 -14 -14 -14 -14 -14 -13 -13
-18 -17 -17 -17 -16 -16 -15 -15 -14 -15 -15 -15 -14 -14 -14 -14 -14 -14 -14 -14 -14 -14 -14 -14 -13 -14 -13 -13 -13 -13 -13 -13 -13 -13 -13 -14 -14 -14 -14 -14 -14 -14 -14
-18 -17 -17 -16 -16 -16 -16 -15 -15 -15 -15 -15 -15 -15 -15 -15 -15 -14 -14 -14 -14 -14 -14 -14 -14 -14 -13 -13 -12 -13 -13 -13 -13 -13 -13 -14 -14 -14 -14 -14 -14 -14 -14
-18 -17 -17 -16 -16 -16 -16 -16 -15 -15 -15 -15 -15 -15 -15 -15 -15 -15 -15 -15 -15 -14 -14 -15 -14 -13 -13 -13 -13 -12 -13 -13 -12 -13 -13 -13 -14 -14 -14 -14 -14 -14 -14
-17 -17 -17 -17 -16 -16 -16 -15 -16 -16 -16 -16 -16 -16 -16 -15 -15 -15 -15 -15 -14 -14 -14 -14 -13 -13 -13 -13 -13 -13 -13 -13 -13 -13 -13 -13 -13 -14 -15 -14 -14 -14 -14
-18 -18 -16 -16 -17 -16 -16 -16 -16 -16 -16 -16 -16 -15 -15 -16 -16 -15 -15 -15 -15 -14 -14 -13 -12 -13 -13 -13 -13 -13 -13 -13 -13 -13 -13 -13 -13 -13 -14 -14 -14 -15 -15
-19 -18 -17 -17 -17 -17 -17 -17 -17 -16 -16 -16 -16 -16 -16 -16 -16 -16 -15 -15 -15 -14 -14 -14 -13 -13 -13 -13 -14 -14 -13 -13 -13 -13 -13 -13 -13 -14 -14 -15 -14 -15 -15
-17 -17 -17 -17 -17 -17 -16 -16 -16 -16 -16 -16 -16 -16 -16 -16 -16 -16 -15 -15 -14 -14 -14 -14 -14 -14 -14 -14 -14 -14 -14 -13 -13 -13 -13 -13 -13 -14 -14 -15 -14 -15 -15
-17 -17 -17 -17 -17 -17 -17 -17 -17 -17 -17 -17 -17 -16 -16 -16 -16 -16 -16 -15 -15 -14 -14 -14 -15 -15 -14 -15 -14 -14 -14 -13 -13 -13 -13 -13 -14 -14 -14 -15 -14 -15 -15
-18 -18 -17 -17 -17 -18 -18 -18 -17 -17 -17 -17 -16 -16 -16 -17 -17 -17 -16 -16 -16 -15 -15 -14 -15 -14 -15 -15 -15 -14 -14 -14 -13 -13 -14 -14 -14 -14 -14 -15 -14 -15 -15
-19 -18 -18 -19 -20 -19 -18 -18 -18 -18 -17 -17 -17 -17 -16 -16 -17 -16 -16 -16 -16 -16 -15 -15 -15 -14 -14 -14 -15 -14 -14 -13 -14 -13 -14 -14 -14 -14 -15 -15 -15 -14 -15
-20 -20 -20 -19 -19 -20 -19 -18 -18 -18 -18 -17 -17 -17 -16 -16 -16 -16 -16 -16 -15 -15 -15 -15 -15 -14 -14 -14 -14 -13 -13 -13 -13 -14 -14 -14 -14 -15 -15 -15 -15 -14 -15
-21 -20 -20 -19 -19 -19 -19 -18 -18 -18 -18 -17 -17 -17 -16 -16 -16 -16 -15 -15 -15 -15 -14 -14 -14 -14 -14 -14 -13 -13 -13 -13 -14 -14 -14 -15 -15 -16 -15 -15 -15 -15 -15
-21 -21 -21 -21 -20 -20 -19 -19 -19 -19 -18 -18 -17 -17 -17 -17 -16 -16 -15 -15 -14 -14 -14 -14 -14 -14 -13 -13 -13 -13 -13 -13 -14 -15 -15 -15 -15 -15 -16 -16 -15 -15 -15
-21 -21 -21 -20 -20 -20 -20 -19 -19 -19 -18 -18 -18 -17 -17 -17 -17 -16 -16 -15 -15 -14 -14 -13 -13 -13 -13 -13 -13 -13 -13 -14 -14 -14 -15 -15 -15 -16 -16 -16 -16 -16 -16
-21 -21 -21 -20 -20 -20 -20 -19 -19 -19 -19 -18 -18 -18 -17 -17 -17 -16 -16 -15 -15 -15 -14 -14 -13 -13 -13 -13 -14 -15 -15 -16 -15 -15 -16 -16 -16 -16 -16 -16 -16 -16 -16
-22 -21 -21 -20 -20 -20 -20 -20 -20 -20 -19 -19 -19 -19 -18 -18 -17 -17 -17 -16 -15 -15 -14 -14 -14 -15 -16 -16 -16 -16 -16 -16 -15 -16 -16 -16 -16 -16 -17 -17 -16 -17 -17
-22 -22 -22 -21 -21 -21 -21 -21 -21 -20 -20 -20 -20 -20 -20 -20 -19 -19 -19 -18 -17 -16 -15 -15 -15 -16 -16 -16 -16 -16 -16 -17 -16 -16 -16 -16 -17 -17 -17 -17 -17 -17 -17
-23 -23 -23 -23 -22 -22 -22 -22 -21 -21 -21 -20 -20 -20 -20 -20 -20 -19 -19 -19 -18 -17 -17 -16 -16 -17 -16 -16 -16 -16 -16 -16 -16 -17 -17 -16 -17 -18 -17 -17 -17 -17 -17

GFSMW_500_temp_132.txt.gz
Temp
-11 -11 -11 -12 -12 -12 -12 -12 -12 -13 -14 -14 -13 -13 -13 -13 -13 -13 -13 -13 -13 -12 -12 -13 -13 -13 -13 -13 -14 -13 -14 -14 -13 -13 -14 -13 -13 -13 -13 -13 -13 -13 -13
-11 -11 -11 -11 -11 -12 -12 -12 -12 -13 -14 -14 -14 -13 -14 -14 -14 -14 -14 -13 -13 -12 -13 -13 -14 -14 -13 -13 -13 -14 -14 -14 -14 -14 -14 -14 -13 -14 -13 -13 -13 -13 -13
-13 -12 -13 -11 -11 -12 -13 -12 -12 -12 -14 -15 -15 -15 -14 -13 -14 -14 -13 -13 -13 -13 -13 -13 -13 -14 -13 -13 -13 -13 -14 -14 -14 -14 -14 -13 -14 -14 -13 -13 -13 -13 -13
-17 -16 -16 -14 -12 -11 -13 -13 -12 -12 -13 -15 -15 -15 -13 -14 -14 -14 -14 -14 -14 -14 -14 -14 -14 -14 -14 -13 -13 -13 -13 -13 -14 -14 -14 -14 -13 -14 -13 -14 -13 -13 -13
-17 -18 -18 -19 -19 -13 -13 -14 -13 -12 -14 -15 -15 -15 -15 -14 -14 -14 -14 -14 -14 -14 -14 -14 -14 -14 -13 -14 -14 -14 -14 -13 -13 -13 -14 -13 -13 -14 -14 -14 -14 -13 -13
-18 -19 -20 -21 -20 -18 -16 -14 -14 -14 -14 -14 -15 -15 -15 -14 -14 -15 -14 -15 -15 -14 -14 -14 -14 -13 -13 -14 -13 -13 -13 -13 -13 -13 -13 -13 -13 -14 -13 -13 -13 -13 -14
-20 -21 -21 -22 -22 -21 -20 -17 -15 -14 -14 -15 -15 -15 -15 -14 -14 -15 -14 -15 -14 -14 -15 -15 -14 -14 -13 -13 -13 -13 -13 -13 -13 -13 -13 -13 -13 -13 -13 -13 -13 -13 -13
-20 -21 -21 -22 -22 -21 -20 -19 -17 -16 -16 -15 -15 -15 -15 -14 -14 -14 -14 -14 -14 -15 -15 -15 -14 -14 -14 -14 -13 -13 -13 -13 -13 -13 -13 -13 -13 -13 -13 -13 -13 -13 -13
-20 -21 -22 -21 -21 -20 -20 -19 -18 -17 -15 -15 -15 -14 -14 -15 -14 -14 -14 -14 -14 -15 -15 -15 -15 -14 -14 -14 -14 -14 -14 -13 -13 -13 -14 -13 -13 -13 -13 -13 -13 -13 -13
-20 -20 -20 -21 -20 -21 -20 -19 -17 -16 -13 -15 -14 -14 -14 -14 -15 -15 -14 -14 -14 -15 -15 -14 -14 -14 -14 -14 -14 -14 -13 -14 -13 -13 -14 -13 -13 -13 -13 -13 -13 -13 -12
-19 -19 -18 -18 -19 -19 -19 -18 -16 -15 -16 -15 -14 -14 -15 -15 -15 -15 -14 -14 -15 -14 -15 -15 -14 -14 -15 -14 -14 -14 -14 -14 -14 -14 -14 -14 -13 -13 -13 -13 -13 -13 -12
-18 -18 -18 -19 -17 -18 -18 -17 -16 -16 -15 -15 -15 -15 -15 -15 -15 -15 -14 -14 -14 -14 -14 -15 -15 -14 -14 -14 -14 -14 -14 -13 -14 -14 -14 -13 -13 -13 -13 -13 -13 -13 -13
-19 -18 -17 -18 -18 -18 -18 -18 -17 -17 -15 -15 -15 -15 -15 -15 -15 -15 -15 -15 -14 -15 -15 -14 -15 -15 -15 -15 -15 -14 -14 -13 -13 -13 -13 -13 -13 -13 -13 -13 -13 -13 -13
-19 -18 -18 -18 -18 -17 -17 -17 -16 -16 -17 -17 -16 -15 -15 -16 -15 -15 -15 -15 -16 -16 -16 -15 -15 -15 -15 -14 -14 -14 -14 -13 -13 -13 -12 -12 -12 -12 -13 -13 -13 -13 -13
-19 -19 -19 -18 -18 -17 -17 -17 -17 -18 -17 -16 -17 -16 -16 -16 -16 -16 -15 -15 -15 -15 -16 -16 -15 -15 -15 -14 -14 -14 -14 -13 -13 -12 -12 -12 -13 -12 -13 -13 -14 -13 -13
-20 -19 -19 -19 -19 -18 -18 -17 -17 -16 -17 -17 -17 -15 -16 -15 -16 -16 -15 -16 -15 -15 -15 -15 -15 -15 -15 -14 -14 -15 -15 -14 -13 -13 -13 -13 -13 -13 -14 -14 -14 -14 -13
-20 -20 -19 -19 -18 -19 -18 -18 -17 -18 -17 -17 -18 -17 -17 -17 -17 -17 -16 -16 -16 -16 -15 -15 -15 -15 -15 -15 -15 -15 -15 -14 -13 -13 -13 -13 -13 -14 -14 -14 -14 -14 -14
-20 -20 -20 -20 -19 -18 -18 -18 -18 -18 -18 -17 -17 -17 -17 -17 -17 -17 -17 -16 -16 -16 -15 -15 -15 -15 -15 -15 -15 -15 -15 -14 -14 -13 -13 -13 -13 -14 -14 -15 -15 -15 -15
-20 -21 -20 -20 -20 -20 -20 -20 -19 -19 -18 -18 -17 -17 -17 -18 -18 -17 -17 -16 -16 -16 -15 -15 -16 -15 -15 -15 -15 -15 -15 -15 -15 -14 -14 -14 -14 -15 -15 -15 -15 -15 -15
-21 -20 -21 -21 -21 -21 -21 -21 -21 -21 -20 -20 -20 -18 -18 -18 -17 -17 -17 -17 -17 -16 -16 -16 -15 -15 -15 -15 -15 -15 -15 -15 -15 -15 -15 -15 -14 -15 -15 -14 -15 -15 -15
-21 -21 -20 -20 -20 -20 -20 -20 -20 -20 -20 -19 -19 -18 -18 -18 -17 -17 -17 -17 -17 -17 -16 -16 -16 -15 -15 -15 -15 -15 -15 -15 -15 -15 -15 -15 -15 -15 -15 -15 -15 -15 -15
-21 -21 -21 -20 -20 -20 -20 -20 -20 -19 -19 -19 -19 -19 -19 -18 -18 -18 -18 -17 -17 -17 -17 -17 -16 -16 -15 -15 -15 -15 -15 -15 -14 -14 -15 -15 -15 -15 -15 -16 -15 -15 -15
-21 -21 -21 -21 -20 -20 -20 -20 -20 -20 -20 -19 -19 -19 -19 -19 -19 -18 -18 -18 -18 -17 -17 -17 -17 -16 -16 -15 -15 -15 -15 -15 -14 -15 -14 -14 -15 -14 -15 -15 -16 -16 -15
-23 -23 -22 -22 -22 -21 -21 -21 -20 -20 -20 -20 -20 -19 -19 -19 -19 -19 -19 -18 -18 -18 -17 -17 -17 -16 -16 -15 -15 -15 -15 -15 -14 -14 -14 -14 -14 -14 -15 -15 -15 -15 -16
-24 -24 -23 -23 -23 -23 -22 -22 -21 -21 -21 -21 -21 -20 -20 -20 -20 -20 -19 -19 -19 -19 -18 -18 -18 -18 -17 -16 -15 -15 -14 -14 -14 -14 -14 -14 -15 -15 -15 -16 -15 -15 -16
-25 -24 -24 -24 -24 -23 -23 -23 -23 -23 -22 -22 -22 -22 -21 -22 -21 -21 -21 -21 -20 -20 -19 -19 -18 -18 -18 -18 -17 -16 -16 -15 -15 -16 -15 -15 -16 -16 -16 -16 -16 -16 -16